Weather History for Provincetown, MA

Change the Weather History Date:

Friday, February 17, 2012

  Actual Average Record
Temperature  
Mean Temperature 42 °F -  
Max Temperature 46 °F 36 °F 55 °F (2006)
Min Temperature 39 °F 25 °F 10 °F (1958)
Degree Days  
Heating Degree Days 22    
Moisture  
Dew Point 36 °F    
Average Humidity 82    
Maximum Humidity 93    
Minimum Humidity 56    
Precipitation  
Precipitation 0.05 in - - ()
Sea Level Pressure  
Sea Level Pressure 29.94 in    
Wind  
Wind Speed 9 mph (SSW)    
Max Wind Speed 20 mph    
Max Gust Speed 28 mph    
Visibility 8 miles    
Events      
Averages and records for this station are not official NWS values.
T = Trace of Precipitation, MM = Missing Value Source: NWS Daily Summary

Daily Weather History Graph

Daily Weather History Graph

Search for Another Location

Airport:

Trip Planner

Search our weather history database for the weather conditions in past years. The results will help you decide how hot, cold, wet, or windy it might be!

Date:

Astronomy

Feb. 17, 2012 Rise Set
Actual Time 6:34 AM EST 5:15 PM EST
Civil Twilight 6:06 AM EST 5:44 PM EST
Nautical Twilight 5:33 AM EST 6:16 PM EST
Astronomical Twilight 5:01 AM EST 6:49 PM EST
Moon 3:26 AM EST (2/17) 1:01 PM EST (2/17)
Length of Visible Light 11h 37m
Length of Day
10h 40m
Waning Crescent, 19% of the Moon is Illuminated
Feb 17
Waning Crescent
Feb 21
New
Feb 29
First Quarter
Mar 8
Full
Mar 14
Last Quarter

Hourly Weather History & Observations

Time (EST) Temp. Windchill Dew Point Humidity Pressure Visibility Wind Dir Wind Speed Gust Speed Precip Events Conditions
12:15 AM 39.2 °F 33.0 °F 33.8 °F 81% 30.08 in 10.0 mi SSW 9.2 mph - N/A   Overcast
12:55 AM 39.2 °F 33.6 °F 35.6 °F 87% 30.07 in 10.0 mi South 8.1 mph - 0.01 in   Overcast
1:15 AM 39.2 °F 33.0 °F 35.6 °F 87% 30.06 in 10.0 mi South 9.2 mph - N/A   Overcast
1:35 AM 39.2 °F 33.0 °F 33.8 °F 81% 30.05 in 10.0 mi South 9.2 mph - N/A   Overcast
1:55 AM 39.2 °F 33.0 °F 33.8 °F 81% 30.04 in 10.0 mi South 9.2 mph - N/A   Overcast
2:15 AM 39.2 °F 33.6 °F 33.8 °F 81% 30.03 in 10.0 mi South 8.1 mph - N/A   Mostly Cloudy
2:35 AM 39.2 °F 34.2 °F 35.6 °F 87% 30.02 in 10.0 mi South 6.9 mph - N/A   Mostly Cloudy
2:55 AM 39.2 °F 33.6 °F 35.6 °F 87% 30.01 in 10.0 mi South 8.1 mph - N/A   Overcast
3:15 AM 39.2 °F 33.6 °F 35.6 °F 87% 30.00 in 10.0 mi South 8.1 mph - N/A   Overcast
3:35 AM 39.2 °F 32.5 °F 35.6 °F 87% 30.00 in 10.0 mi South 10.4 mph - N/A   Overcast
3:55 AM 39.2 °F 32.5 °F 35.6 °F 87% 30.01 in 9.0 mi South 10.4 mph - N/A   Overcast
4:15 AM 39.2 °F 33.0 °F 35.6 °F 87% 30.01 in 7.0 mi South 9.2 mph - N/A   Overcast
4:35 AM 39.2 °F 33.0 °F 35.6 °F 87% 30.00 in 8.0 mi South 9.2 mph - N/A   Overcast
4:55 AM 39.2 °F 33.0 °F 37.4 °F 93% 30.00 in 10.0 mi SSW 9.2 mph 16.1 mph N/A   Overcast
5:15 AM 39.2 °F 32.5 °F 37.4 °F 93% 29.99 in 10.0 mi South 10.4 mph - N/A   Overcast
5:55 AM 39.2 °F 33.0 °F 37.4 °F 93% 29.97 in 10.0 mi South 9.2 mph - N/A   Overcast
6:15 AM 41.0 °F 34.7 °F 35.6 °F 81% 29.97 in 10.0 mi South 10.4 mph 17.3 mph N/A   Overcast
6:35 AM 41.0 °F 34.7 °F 37.4 °F 87% 29.98 in 10.0 mi South 10.4 mph - N/A   Overcast
6:55 AM 41.0 °F 34.7 °F 37.4 °F 87% 29.98 in 10.0 mi SSW 10.4 mph - N/A   Overcast
7:15 AM 41.0 °F 35.2 °F 37.4 °F 87% 29.99 in 10.0 mi SSW 9.2 mph - N/A   Overcast
7:35 AM 41.0 °F 35.2 °F 37.4 °F 87% 29.99 in 10.0 mi South 9.2 mph - N/A   Overcast
8:15 AM 41.0 °F 35.2 °F 37.4 °F 87% 30.00 in 7.0 mi SSW 9.2 mph - N/A   Overcast
8:35 AM 41.0 °F 37.1 °F 37.4 °F 87% 30.00 in 5.0 mi SSW 5.8 mph - N/A   Overcast
8:55 AM 41.0 °F 37.1 °F 37.4 °F 87% 30.00 in 2.5 mi SW 5.8 mph - N/A   Overcast
9:15 AM 41.0 °F 35.2 °F 37.4 °F 87% 29.99 in 2.0 mi SSW 9.2 mph - 0.01 in   Overcast
9:35 AM 41.0 °F 35.2 °F 37.4 °F 87% 29.99 in 1.2 mi SW 9.2 mph - 0.01 in   Overcast
9:55 AM 41.0 °F 35.8 °F 37.4 °F 87% 29.98 in 2.0 mi SSW 8.1 mph - 0.02 in   Overcast
10:15 AM 42.8 °F 38.6 °F 39.2 °F 87% 29.97 in 3.0 mi SSW 6.9 mph - 0.01 in   Overcast
10:35 AM 42.8 °F 38.0 °F 37.4 °F 81% 29.97 in 3.0 mi SSW 8.1 mph - 0.02 in   Overcast
10:55 AM 42.8 °F 38.0 °F 39.2 °F 87% 29.96 in 1.8 mi SSW 8.1 mph - 0.02 in   Overcast
11:15 AM 42.8 °F 39.3 °F 39.2 °F 87% 29.95 in 2.5 mi South 5.8 mph - N/A   Overcast
11:35 AM 42.8 °F 39.3 °F 39.2 °F 87% 29.94 in 3.0 mi SSW 5.8 mph - N/A   Overcast
11:55 AM 42.8 °F 39.3 °F 39.2 °F 87% 29.93 in 3.0 mi SSW 5.8 mph - N/A   Overcast
12:15 PM 42.8 °F 40.1 °F 39.2 °F 87% 29.91 in 4.0 mi SSW 4.6 mph - N/A   Overcast
12:35 PM 42.8 °F 40.1 °F 39.2 °F 87% 29.90 in 3.0 mi South 4.6 mph - N/A   Overcast
12:55 PM 42.8 °F 39.3 °F 41.0 °F 93% 29.89 in 4.0 mi SSW 5.8 mph - N/A   Overcast
1:15 PM 44.6 °F 42.2 °F 41.0 °F 87% 29.88 in 7.0 mi South 4.6 mph - N/A   Overcast
1:55 PM 44.6 °F 41.4 °F 41.0 °F 87% 29.87 in 7.0 mi South 5.8 mph - N/A   Overcast
2:15 PM 44.6 °F 41.4 °F 41.0 °F 87% 29.86 in 7.0 mi South 5.8 mph - N/A   Overcast
2:35 PM 44.6 °F 42.2 °F 41.0 °F 87% 29.86 in 10.0 mi South 4.6 mph - N/A   Overcast
2:55 PM 44.6 °F 41.4 °F 42.8 °F 93% 29.86 in 10.0 mi SSW 5.8 mph - N/A   Mostly Cloudy
3:15 PM 46.4 °F 43.5 °F 42.8 °F 87% 29.85 in 10.0 mi SSW 5.8 mph - N/A   Partly Cloudy
3:35 PM 44.6 °F 40.7 °F 42.8 °F 93% 29.84 in 10.0 mi SSW 6.9 mph - N/A   Scattered Clouds
3:55 PM 44.6 °F 40.7 °F 41.0 °F 87% 29.84 in 10.0 mi SSW 6.9 mph - N/A   Mostly Cloudy
4:35 PM 42.8 °F - 39.2 °F 87% 29.85 in 10.0 mi Calm Calm - N/A   Mostly Cloudy
4:55 PM 42.8 °F 41.1 °F 39.2 °F 87% 29.85 in 10.0 mi South 3.5 mph - N/A   Overcast
5:15 PM 42.8 °F - 37.4 °F 81% 29.86 in 8.0 mi Calm Calm - N/A   Overcast
5:35 PM 41.0 °F - 35.6 °F 81% 29.86 in 6.0 mi Calm Calm - N/A   Overcast
6:15 PM 39.2 °F 37.0 °F 35.6 °F 87% 29.87 in 6.0 mi WSW 3.5 mph - N/A   Overcast
6:35 PM 41.0 °F 37.1 °F 37.4 °F 87% 29.87 in 10.0 mi West 5.8 mph - N/A   Overcast
7:15 PM 42.8 °F 35.1 °F 32.0 °F 66% 29.88 in 10.0 mi WNW 16.1 mph 20.7 mph N/A   Overcast
7:35 PM 42.8 °F 34.8 °F 30.2 °F 61% 29.88 in 10.0 mi WNW 17.3 mph 26.5 mph N/A   Overcast
7:55 PM 42.8 °F 34.5 °F 30.2 °F 61% 29.89 in 10.0 mi WNW 18.4 mph 27.6 mph N/A   Overcast
8:15 PM 42.8 °F 35.1 °F 28.4 °F 57% 29.90 in 10.0 mi WNW 16.1 mph 23.0 mph N/A   Overcast
8:55 PM 41.0 °F 33.5 °F 28.4 °F 61% 29.90 in 10.0 mi WNW 13.8 mph 23.0 mph N/A   Overcast
9:15 PM 41.0 °F 32.5 °F 28.4 °F 61% 29.90 in 10.0 mi WNW 17.3 mph 23.0 mph N/A   Overcast
9:55 PM 41.0 °F 33.1 °F 28.4 °F 61% 29.90 in 10.0 mi WNW 15.0 mph - N/A   Mostly Cloudy
10:15 PM 39.2 °F 29.6 °F 28.4 °F 65% 29.90 in 10.0 mi WNW 19.6 mph - N/A   Partly Cloudy
10:35 PM 39.2 °F 30.8 °F 28.4 °F 65% 29.90 in 10.0 mi WNW 15.0 mph 21.9 mph N/A   Clear
10:55 PM 39.2 °F 31.2 °F 28.4 °F 65% 29.90 in 10.0 mi WNW 13.8 mph - N/A   Clear
11:15 PM 39.2 °F 30.5 °F 26.6 °F 61% 29.90 in 10.0 mi West 16.1 mph - N/A   Clear
11:35 PM 39.2 °F 31.2 °F 24.8 °F 56% 29.90 in 10.0 mi West 13.8 mph 19.6 mph N/A   Clear